Location: Aufkirchen
(47.9603°N, 11.3653°E)
Time: 06:06:50
(UTC+01:00)

Transit 2A - Pass Details

Date: 02 December 2020
Orbit: 599 x 960 km, 66.7° (Epoch: 25 January)

Event Time Altitude Azimuth Distance (km) Brightness Sun altitude
Rises 01:42:37 0° 323° (NW) 3,298 - -57.4°
Reaches altitude 10° 01:45:10 10° 321° (NW) 2,305 - -57.1°
Maximum altitude 01:50:20 67° 240° (WSW) 769 - -56.4°
Drops below altitude 10° 01:54:59 10° 158° (SSE) 2,072 - -55.9°
Sets 01:57:11 0° 156° (SSE) 2,938 - -55.6°
